User: anonymous   Login
Location: Godiavel Galaoual
(15.2485°N, 12.6604°W)
Time: 01:43:45
(UTC+00:00)
Language:

AO-91 - Orbit

View from above orbital plane
View from above orbital plane
View from above satellite
View from above satellite

Ground track
Ground track

The orbit data is extracted from the following two-line orbital elements,

1 43017U 17073E   21206.47578306  .00000674  00000-0  57059-4 0  9991
2 43017  97.7033 108.9549 0254734 176.0075 184.3254 14.79610708198742
Epoch (UTC): 25 July 2021 11:25:07
Eccentricity: 0.0254734
inclination: 97.7033°
perigee height: 452 km
apogee height: 809 km
right ascension of ascending node: 108.9549°
argument of perigee: 176.0075°
revolutions per day: 14.79610708
mean anomaly at epoch: 184.3254°
orbit number at epoch: 19874

The dashed part of the orbit path shows where the satellite is in the earth's shadow,  

DLR